STARLINK-1096 (44942 NORAD) Tracking and Keplerian Element Data

This shows tracking and keplerian element data for the satellite.

Feedback or suggestion? Click here.




ElementValue
Catalog44942
NameSTARLINK-1096
Epoch Orbit178
Epoch Day52.91667824
Epoch Year2020
RAAN168.8874
Inclination52.9956
Eccentricity0.0008684
Argument of Perigee3.3971
Mean Anonmoly21.7023
Mean Motion15.73192532
Decay Rate0.00027812
L11 44942U 20001AE 20052.91667824 .00027812 00000-0 20158-3 0 9997
L22 44942 52.9956 168.8874 0008684 3.3971 21.7023 15.73192532 1781

Live tracking and technical data element details for STARLINK-1096 (NORAD 44942). STARLINK-1096 can be tracked NOW for your location showing map with azimuth and elevation plus other details from your city location.

Track the satellite on the map from your city or location and see movement details for azimuth, elevation, latitude, longitude, range, height, and movement on the map or in text.







IsCatalogInMostPopularTable: catalog: 44942, numindb: 14
Update: records affected: 1



GetName: 44942 STARLINK-1096

Hit Count: updated at: Mon, 24 Feb 2020 18:41:10 GMT